Dyess AFB, TX

1:26 PM CST on February 25, 2017 (GMT -0600)
Dyess Air Force Base

Weather History for KDYS - February, 2014

Change the Weather History Date:

Tuesday, February 18, 2014

  Actual Average Record
Temperature  
Mean Temperature 62 °F -  
Max Temperature 83 °F 59 °F 83 °F (2014)
Min Temperature 40 °F 39 °F 23 °F (2007)
Degree Days  
Heating Degree Days 4    
Growing Degree Days 12 (Base 50)    
Moisture  
Dew Point 39 °F    
Average Humidity 45    
Maximum Humidity 74    
Minimum Humidity 27    
Precipitation  
Precipitation 0.00 in - - ()
Sea Level Pressure  
Sea Level Pressure 29.89 in    
Wind  
Wind Speed 9 mph (South)    
Max Wind Speed 17 mph    
Max Gust Speed 22 mph    
Visibility 10 miles    
Events      
Averages and records for this station are not official NWS values.
T = Trace of Precipitation, MM = Missing Value Source: NWS Daily Summary

Daily Weather History Graph

Daily Weather History Graph

Search for Another Location

Airport or City:

Trip Planner

Search our weather history database for the weather conditions in past years. The results will help you decide how hot, cold, wet, or windy it might be!

Date:

Astronomy

Feb. 18, 2014 Rise Set
Actual Time 7:19 AM CST 6:27 PM CST
Civil Twilight 6:54 AM CST 6:52 PM CST
Nautical Twilight 6:25 AM CST 7:21 PM CST
Astronomical Twilight 5:56 AM CST 7:50 PM CST
Moon 10:06 PM CST (2/18) 9:06 AM CST (2/18)
Length of Visible Light 11h 58m
Length of Day
11h 08m
Waning Gibbous, 87% of the Moon is Illuminated
Feb 18
Waning Gibbous
Feb 22
Last Quarter
Mar 1
New
Mar 8
First Quarter
Mar 16
Full

Hourly Weather History & Observations

Time (CST) Temp. Windchill Dew Point Humidity Pressure Visibility Wind Dir Wind Speed Gust Speed Precip Events Conditions
12:58 AM 40.1 °F 36.9 °F 23.5 °F 52% 30.08 in 10.0 mi South 4.6 mph - N/A   Clear
1:58 AM 40.5 °F - 27.1 °F 59% 30.04 in 10.0 mi SSE 2.3 mph - N/A   Clear
2:58 AM 43.3 °F 38.6 °F 26.1 °F 51% 30.00 in 10.0 mi South 8.1 mph - N/A   Clear
3:58 AM 46.2 °F 43.3 °F 23.9 °F 42% 30.00 in 10.0 mi South 5.8 mph - N/A   Scattered Clouds
4:58 AM 44.1 °F 39.5 °F 22.3 °F 42% 29.99 in 10.0 mi South 8.1 mph - N/A   Partly Cloudy
5:58 AM 42.4 °F 38.8 °F 24.3 °F 49% 29.98 in 10.0 mi SSE 5.8 mph - N/A   Clear
6:58 AM 48.7 °F - 24.1 °F 38% 29.96 in 10.0 mi SE 5.8 mph - N/A   Clear
7:58 AM 51.4 °F - 24.8 °F 35% 29.97 in 10.0 mi South 10.4 mph - N/A   Clear
8:58 AM 59.0 °F - 25.7 °F 28% 29.96 in 10.0 mi SSE 16.1 mph - N/A   Clear
9:58 AM 64.9 °F - 40.1 °F 40% 29.95 in 10.0 mi South 16.1 mph - N/A   Clear
10:58 AM 69.8 °F - 45.5 °F 42% 29.95 in 10.0 mi South 15.0 mph 21.9 mph N/A   Clear
11:58 AM 73.8 °F - 46.2 °F 37% 29.91 in 10.0 mi South 13.8 mph 17.3 mph N/A   Clear
12:58 PM 74.7 °F - 46.8 °F 37% 29.87 in 10.0 mi South 13.8 mph - N/A   Partly Cloudy
1:58 PM 79.0 °F - 47.3 °F 33% 29.81 in 10.0 mi SSW 17.3 mph - N/A   Clear
2:58 PM 81.7 °F - 48.6 °F 31% 29.80 in 10.0 mi WSW 15.0 mph 20.7 mph N/A   Clear
3:58 PM 82.9 °F - 46.2 °F 28% 29.77 in 10.0 mi SW 12.7 mph 18.4 mph N/A   Clear
4:58 PM 83.3 °F - 45.9 °F 27% 29.75 in 10.0 mi SSW 11.5 mph - N/A   Clear
5:58 PM 80.4 °F - 45.9 °F 30% 29.76 in 10.0 mi South 5.8 mph - N/A   Clear
6:58 PM 63.9 °F - 43.5 °F 48% 29.80 in 10.0 mi South 5.8 mph - N/A   Clear
7:58 PM 58.3 °F - 42.8 °F 56% 29.81 in 10.0 mi South 8.1 mph - N/A   Clear
8:58 PM 58.1 °F - 46.2 °F 65% 29.81 in 10.0 mi SSE 10.4 mph - N/A   Clear
9:58 PM 66.0 °F - 53.4 °F 64% 29.80 in 10.0 mi South 12.7 mph - N/A   Clear
10:58 PM 64.8 °F - 54.1 °F 68% 29.79 in 10.0 mi South 13.8 mph - N/A   Clear
11:58 PM 61.5 °F - 53.1 °F 74% 29.79 in 10.0 mi SSW 4.6 mph - N/A   Clear